Weather History for KVLD - March, 2014

Change the Weather History Date:

Sunday, March 16, 2014

  Actual Average Record
Temperature  
Mean Temperature 67 °F 60 °F  
Max Temperature 80 °F 73 °F 89 °F (2012)
Min Temperature 54 °F 47 °F 33 °F (1999)
Degree Days  
Heating Degree Days 0 6  
Month to date heating degree days 117 112  
Since 1 July heating degree days 1168 1492  
Cooling Degree Days 2 1  
Month to date cooling degree days 8 16  
Year to date cooling degree days 40 26  
Growing Degree Days 17 (Base 50)    
Moisture  
Dew Point 57 °F    
Average Humidity 69    
Maximum Humidity 90    
Minimum Humidity 47    
Precipitation  
Precipitation 0.51 in 0.14 in 2.00 in (2005)
Month to date precipitation 2.10 2.61  
Year to date precipitation 8.24 11.34  
Sea Level Pressure  
Sea Level Pressure 29.84 in    
Wind  
Wind Speed 7 mph (South)    
Max Wind Speed 25 mph    
Max Gust Speed 37 mph    
Visibility 5 miles    
Events Fog , Rain , Thunderstorm    
T = Trace of Precipitation, MM = Missing Value Source: NWS Daily Summary

Daily Weather History Graph

Daily Weather History Graph

Search for Another Location

Airport or City:

Trip Planner

Search our weather history database for the weather conditions in past years. The results will help you decide how hot, cold, wet, or windy it might be!

Date:

Astronomy

Mar. 16, 2014 Rise Set
Actual Time 7:41 AM EDT 7:41 PM EDT
Civil Twilight 7:17 AM EDT 8:06 PM EDT
Nautical Twilight 6:49 AM EDT 8:34 PM EDT
Astronomical Twilight 6:21 AM EDT 9:02 PM EDT
Moon 7:55 PM EDT (3/16) 7:26 AM EDT (3/16)
Length of Visible Light 12h 48m
Length of Day
12h 00m
Full, 100% of the Moon is Illuminated
Mar 16
Full
Mar 16
Full
Mar 23
Last Quarter
Mar 30
New
Apr 7
First Quarter

Hourly Weather History & Observations

Time (EDT) Temp. Dew Point Humidity Pressure Visibility Wind Dir Wind Speed Gust Speed Precip Events Conditions
12:53 AM 55.0 °F 46.9 °F 74% 30.04 in 10.0 mi Calm Calm - N/A   Clear
1:53 AM 55.0 °F 48.0 °F 77% 30.03 in 10.0 mi Calm Calm - N/A   Mostly Cloudy
2:53 AM 55.9 °F 48.9 °F 77% 30.01 in 10.0 mi Calm Calm - N/A   Clear
3:53 AM 57.9 °F 50.0 °F 75% 29.97 in 10.0 mi SE 6.9 mph - N/A   Overcast
4:53 AM 59.0 °F 48.9 °F 69% 29.92 in 10.0 mi SE 6.9 mph - N/A   Clear
5:53 AM 59.0 °F 50.0 °F 72% 29.91 in 10.0 mi SSE 5.8 mph - N/A   Clear
6:53 AM 57.0 °F 50.0 °F 77% 29.89 in 10.0 mi South 5.8 mph - N/A   Clear
7:53 AM 55.0 °F 48.9 °F 80% 29.90 in 10.0 mi Calm Calm - N/A   Clear
8:53 AM 61.0 °F 52.0 °F 72% 29.89 in 10.0 mi South 8.1 mph - N/A   Clear
9:53 AM 69.1 °F 55.0 °F 61% 29.87 in 10.0 mi South 16.1 mph 24.2 mph N/A   Mostly Cloudy
10:53 AM 73.0 °F 55.9 °F 55% 29.86 in 10.0 mi South 13.8 mph 26.5 mph N/A   Mostly Cloudy
11:53 AM 75.9 °F 57.0 °F 52% 29.84 in 10.0 mi South 19.6 mph 29.9 mph N/A   Scattered Clouds
12:53 PM 77.0 °F 55.0 °F 47% 29.83 in 10.0 mi South 18.4 mph 33.4 mph N/A   Scattered Clouds
1:53 PM 79.0 °F 57.0 °F 47% 29.78 in 10.0 mi South 18.4 mph 34.5 mph N/A   Partly Cloudy
2:53 PM 73.0 °F 61.0 °F 66% 29.85 in 2.5 mi NW 12.7 mph 26.5 mph 0.00 in Rain Rain
2:56 PM 69.8 °F 60.8 °F 73% 29.83 in 0.8 mi NW 13.8 mph 29.9 mph 0.00 in Rain Heavy Rain
3:17 PM 64.4 °F 60.8 °F 88% 29.83 in 1.0 mi Variable 3.5 mph - N/A Rain Heavy Rain
3:25 PM 64.4 °F 60.8 °F 88% 29.80 in 0.5 mi Calm Calm - N/A Fog , Rain Heavy Rain
3:34 PM 64.4 °F 60.8 °F 88% 29.81 in 2.0 mi SW 4.6 mph - N/A Rain Rain
3:42 PM 64.4 °F 60.8 °F 88% 29.81 in 3.0 mi Variable 3.5 mph - N/A Rain Rain
3:46 PM 64.4 °F 60.8 °F 88% 29.79 in 1.8 mi Calm Calm - N/A Rain Heavy Rain
3:53 PM 64.0 °F 60.1 °F 87% 29.80 in 2.0 mi South 4.6 mph - N/A Rain Rain
4:01 PM 64.4 °F 59.0 °F 83% 29.77 in 5.0 mi South 4.6 mph - N/A Rain Light Rain
4:27 PM 64.4 °F 60.8 °F 88% 29.80 in 2.0 mi SSW 4.6 mph - N/A Rain Heavy Rain
4:45 PM 64.4 °F 60.8 °F 88% 29.79 in 1.2 mi South 8.1 mph - N/A Rain Heavy Rain
4:53 PM 64.0 °F 60.1 °F 87% 29.81 in 2.0 mi SSE 5.8 mph - N/A Rain Heavy Rain
5:09 PM 64.4 °F 60.8 °F 88% 29.79 in 1.2 mi Calm Calm - N/A Rain Heavy Rain
5:44 PM 64.4 °F 60.8 °F 88% 29.79 in 2.5 mi South 5.8 mph - N/A Rain Rain
5:53 PM 64.0 °F 60.1 °F 87% 29.82 in 2.5 mi South 4.6 mph - N/A Rain Rain
6:22 PM 64.4 °F 60.8 °F 88% 29.80 in 3.0 mi South 5.8 mph - 0.03 in Rain Rain
6:34 PM 64.4 °F 60.8 °F 88% 29.79 in 2.0 mi SSE 5.8 mph - 0.04 in Rain Heavy Rain
6:49 PM 64.4 °F 59.0 °F 83% 29.79 in 4.0 mi SSE 5.8 mph - 0.06 in Rain Heavy Rain
6:53 PM 64.0 °F 60.1 °F 87% 29.82 in 4.0 mi SSE 6.9 mph - 0.06 in Rain Heavy Rain
7:14 PM 62.6 °F 59.0 °F 88% 29.80 in 4.0 mi SSE 6.9 mph - 0.02 in Rain Rain
7:29 PM 62.6 °F 59.0 °F 88% 29.80 in 6.0 mi SE 4.6 mph - 0.04 in Rain , Thunderstorm Rain
7:44 PM 62.6 °F 59.0 °F 88% 29.81 in 4.0 mi SSE 5.8 mph - 0.05 in Rain Heavy Rain
7:53 PM 63.0 °F 59.0 °F 87% 29.83 in 4.0 mi South 6.9 mph - 0.06 in Rain Heavy Rain
8:53 PM 63.0 °F 59.0 °F 87% 29.82 in 5.0 mi Calm Calm - 0.05 in Rain Rain
9:53 PM 63.0 °F 59.0 °F 87% 29.83 in 5.0 mi SSE 5.8 mph - 0.05 in Rain Rain
10:53 PM 63.0 °F 59.0 °F 87% 29.83 in 4.0 mi ESE 4.6 mph - 0.07 in Rain Heavy Rain
11:23 PM 62.6 °F 59.0 °F 88% 29.83 in 2.0 mi Calm Calm - 0.03 in Rain Heavy Rain
11:30 PM 62.6 °F 59.0 °F 88% 29.83 in 1.8 mi South 4.6 mph - 0.04 in Rain Heavy Rain
11:38 PM 62.6 °F 59.0 °F 88% 29.81 in 3.0 mi ESE 3.5 mph - 0.05 in Rain Heavy Rain
11:53 PM 63.0 °F 59.0 °F 87% 29.83 in 4.0 mi SSE 3.5 mph - 0.06 in Rain Heavy Rain